����,���ϕ���(m/s),���ϕ���,�ő�u�ԕ���(m/s),�ő啗��������,�C��(��),���x(%),10���Ԉړ��ώZ�J��(mm),1���Ԉړ��ώZ�J��(mm),���J��(mm),�݌v�J��(mm)
2021-04-12T00:00:00+09:00,0.8,���쓌,2,��,6.3,75.7,0,0,0,0
2021-04-12T00:01:00+09:00,0.9,���쓌,2,��,6.2,75.1,0,0,0,0
2021-04-12T00:02:00+09:00,1,���쓌,2,��,6.1,75,0,0,0,0
2021-04-12T00:03:00+09:00,1.1,���쓌,2,��,6,74.7,0,0,0,0
2021-04-12T00:04:00+09:00,1.2,���쓌,2.1,���쓌,6,74.7,0,0,0,0
2021-04-12T00:05:00+09:00,1.4,��,2.8,��,6,74.7,0,0,0,0
2021-04-12T00:06:00+09:00,1.5,��,2.9,��,6.1,74.4,0,0,0,0
2021-04-12T00:07:00+09:00,1.5,��,2.9,��,6.1,74.1,0,0,0,0
2021-04-12T00:08:00+09:00,1.6,��,2.9,��,6,73.7,0,0,0,0
2021-04-12T00:09:00+09:00,1.6,��,2.9,��,6,73.3,0,0,0,0
2021-04-12T00:10:00+09:00,1.6,��,2.9,��,6,73.3,0,0,0,0
2021-04-12T00:11:00+09:00,1.5,��,2.9,��,6,73.2,0,0,0,0
2021-04-12T00:12:00+09:00,1.5,��,2.9,��,6,73.4,0,0,0,0
2021-04-12T00:13:00+09:00,1.4,��,2.9,��,6.2,73.5,0,0,0,0
2021-04-12T00:14:00+09:00,1.3,��,2.9,��,6.1,73.4,0,0,0,0
2021-04-12T00:15:00+09:00,1.2,��,2.9,��,6.1,73.8,0,0,0,0
2021-04-12T00:16:00+09:00,1.1,���k��,2.1,��,6.2,74.8,0,0,0,0
2021-04-12T00:17:00+09:00,1.1,���k��,1.7,���k��,6.2,75.7,0,0,0,0
2021-04-12T00:18:00+09:00,1,���k��,1.7,���k��,6.2,76.4,0,0,0,0
2021-04-12T00:19:00+09:00,0.9,���k��,1.7,���k��,6.1,76.5,0,0,0,0
2021-04-12T00:20:00+09:00,0.8,���k��,1.6,���k��,6.2,77.2,0,0,0,0
2021-04-12T00:21:00+09:00,0.7,��,1.6,���k��,6,76.1,0,0,0,0
2021-04-12T00:22:00+09:00,0.6,��,1.6,���k��,6.2,76.4,0,0,0,0
2021-04-12T00:23:00+09:00,0.6,��,1.4,���k��,6.3,76.7,0,0,0,0
2021-04-12T00:24:00+09:00,0.6,���쓌,1.4,���k��,6.2,75.3,0,0,0,0
2021-04-12T00:25:00+09:00,0.6,���쓌,1.4,���쓌,6.1,75.3,0,0,0,0
2021-04-12T00:26:00+09:00,0.6,�쓌,1.5,�쓌,6,75.5,0,0,0,0
2021-04-12T00:27:00+09:00,0.7,�쓌,1.5,�쓌,6,75.7,0,0,0,0
2021-04-12T00:28:00+09:00,0.7,�쓌,1.6,���쓌,6,76.4,0,0,0,0
2021-04-12T00:29:00+09:00,0.8,�쓌,1.8,���쓌,6.1,76.8,0,0,0,0
2021-04-12T00:30:00+09:00,1,�쓌,2.1,���쓌,6,76.9,0,0,0,0
2021-04-12T00:31:00+09:00,1.1,�쓌,2.1,���쓌,6.1,77.2,0,0,0,0
2021-04-12T00:32:00+09:00,1.1,�쓌,2.1,���쓌,6.1,77.3,0,0,0,0
2021-04-12T00:33:00+09:00,1.2,���쓌,2.1,���쓌,6,77.4,0,0,0,0
2021-04-12T00:34:00+09:00,1.2,���쓌,2.1,���쓌,6,76.7,0,0,0,0
2021-04-12T00:35:00+09:00,1.2,���쓌,2.1,���쓌,6,77.5,0,0,0,0
2021-04-12T00:36:00+09:00,1.2,���쓌,2.1,���쓌,6,77.9,0,0,0,0
2021-04-12T00:37:00+09:00,1.2,���쓌,2.1,���쓌,6,77.7,0,0,0,0
2021-04-12T00:38:00+09:00,1.2,���쓌,2.1,���쓌,6,77.5,0,0,0,0
2021-04-12T00:39:00+09:00,1.1,���쓌,2.1,���쓌,6,77.3,0,0,0,0
2021-04-12T00:40:00+09:00,1.1,���쓌,2,��,5.9,76.9,0,0,0,0
2021-04-12T00:41:00+09:00,1.2,���쓌,1.9,���쓌,5.8,76.1,0,0,0,0
2021-04-12T00:42:00+09:00,1.2,���쓌,2,��,5.8,75.6,0,0,0,0
2021-04-12T00:43:00+09:00,1.2,���쓌,2,��,5.8,74.9,0,0,0,0
2021-04-12T00:44:00+09:00,1.3,���쓌,2,��,5.7,74.3,0,0,0,0
2021-04-12T00:45:00+09:00,1.3,���쓌,2,��,5.8,74.1,0,0,0,0
2021-04-12T00:46:00+09:00,1.3,���쓌,2,��,5.8,74.2,0,0,0,0
2021-04-12T00:47:00+09:00,1.4,���쓌,2,��,5.8,74.4,0,0,0,0
2021-04-12T00:48:00+09:00,1.4,���쓌,2,��,5.9,74.6,0,0,0,0
2021-04-12T00:49:00+09:00,1.3,���쓌,2,��,5.9,74.5,0,0,0,0
2021-04-12T00:50:00+09:00,1.3,���쓌,2,��,5.9,74.7,0,0,0,0
2021-04-12T00:51:00+09:00,1.2,���쓌,2,��,6.1,75,0,0,0,0
2021-04-12T00:52:00+09:00,1.1,���쓌,1.9,���쓌,6.2,74.6,0,0,0,0
2021-04-12T00:53:00+09:00,1,���쓌,1.7,���쓌,6.1,73.6,0,0,0,0
2021-04-12T00:54:00+09:00,1,���쓌,1.7,���쓌,5.9,73.6,0,0,0,0
2021-04-12T00:55:00+09:00,0.9,���쓌,1.6,���쓌,5.9,74.2,0,0,0,0
2021-04-12T00:56:00+09:00,0.8,���쓌,1.4,��,5.9,74.6,0,0,0,0
2021-04-12T00:57:00+09:00,0.7,���쓌,1.3,��,5.9,74.8,0,0,0,0
2021-04-12T00:58:00+09:00,0.7,���쓌,1.3,��,5.9,75,0,0,0,0
2021-04-12T00:59:00+09:00,0.6,���쓌,1.2,���쓌,5.8,74.9,0,0,0,0
2021-04-12T01:00:00+09:00,0.6,���쓌,1,�쓌,5.7,74.8,0,0,0,0
2021-04-12T01:01:00+09:00,0.6,���쓌,1,�쓌,5.6,74.9,0,0,0,0
2021-04-12T01:02:00+09:00,0.6,��,1,�쓌,5.5,74.3,0,0,0,0
2021-04-12T01:03:00+09:00,0.6,��,1.2,��,5.5,74.4,0,0,0,0
2021-04-12T01:04:00+09:00,0.6,��,1.6,��,5.6,74.1,0,0,0,0
2021-04-12T01:05:00+09:00,0.7,��,1.6,��,5.6,74,0,0,0,0
2021-04-12T01:06:00+09:00,0.7,��,1.6,��,5.6,73.8,0,0,0,0
2021-04-12T01:07:00+09:00,0.8,��,1.6,��,5.7,73.6,0,0,0,0
2021-04-12T01:08:00+09:00,0.8,��,1.6,��,5.6,73.7,0,0,0,0
2021-04-12T01:09:00+09:00,0.9,��,1.6,��,5.6,73.7,0,0,0,0
2021-04-12T01:10:00+09:00,0.9,��,1.6,��,5.6,74,0,0,0,0
2021-04-12T01:11:00+09:00,1,��,1.7,��,5.5,74,0,0,0,0
2021-04-12T01:12:00+09:00,1,��,1.7,��,5.5,74,0,0,0,0
2021-04-12T01:13:00+09:00,1,��,1.7,��,5.5,74.4,0,0,0,0
2021-04-12T01:14:00+09:00,1,��,1.7,��,5.5,74.4,0,0,0,0
2021-04-12T01:15:00+09:00,1,��,1.7,��,5.3,74.2,0,0,0,0
2021-04-12T01:16:00+09:00,1,��,1.7,��,5.3,74.5,0,0,0,0
2021-04-12T01:17:00+09:00,0.9,��,1.7,��,5.3,75.1,0,0,0,0
2021-04-12T01:18:00+09:00,0.9,���쓌,1.7,��,5.5,75.8,0,0,0,0
2021-04-12T01:19:00+09:00,0.8,���쓌,1.7,��,5.5,75.5,0,0,0,0
2021-04-12T01:20:00+09:00,0.8,���쓌,1.7,��,5.5,75.6,0,0,0,0
2021-04-12T01:21:00+09:00,0.7,���쓌,1.4,��,5.6,76.1,0,0,0,0
2021-04-12T01:22:00+09:00,0.6,���쓌,1.4,��,6,77.4,0,0,0,0
2021-04-12T01:23:00+09:00,0.6,���쓌,1.4,��,5.8,75.8,0,0,0,0
2021-04-12T01:24:00+09:00,0.6,�쓌,1.4,��,5.6,75.6,0,0,0,0
2021-04-12T01:25:00+09:00,0.6,�쓌,1,���쓌,5.6,76.3,0,0,0,0
2021-04-12T01:26:00+09:00,0.5,�쓌,1,���쓌,5.6,76.7,0,0,0,0
2021-04-12T01:27:00+09:00,0.5,�쓌,1,���쓌,5.7,77,0,0,0,0
2021-04-12T01:28:00+09:00,0.5,�쓌,1,���쓌,5.6,76.9,0,0,0,0
2021-04-12T01:29:00+09:00,0.5,�쓌,1,���쓌,5.6,77.4,0,0,0,0
2021-04-12T01:30:00+09:00,0.5,�쓌,1,���쓌,5.5,77.8,0,0,0,0
2021-04-12T01:31:00+09:00,0.5,�쓌,1,���쓌,5.6,78.2,0,0,0,0
2021-04-12T01:32:00+09:00,0.6,��쓌,1,���쓌,5.8,79,0,0,0,0
2021-04-12T01:33:00+09:00,0.5,��쓌,1,��,5.8,78.3,0,0,0,0
2021-04-12T01:34:00+09:00,0.5,�쓌,1,��,5.8,78,0,0,0,0
2021-04-12T01:35:00+09:00,0.6,�쓌,1.3,��쓌,5.6,77.8,0,0,0,0
2021-04-12T01:36:00+09:00,0.7,�쓌,1.3,��쓌,5.6,78,0,0,0,0
2021-04-12T01:37:00+09:00,0.7,�쓌,1.3,��쓌,5.7,78.6,0,0,0,0
2021-04-12T01:38:00+09:00,0.8,�쓌,1.3,��쓌,5.7,78.7,0,0,0,0
2021-04-12T01:39:00+09:00,0.8,�쓌,1.3,��쓌,5.6,78.5,0,0,0,0
2021-04-12T01:40:00+09:00,0.9,�쓌,1.3,��쓌,5.6,78.7,0,0,0,0
2021-04-12T01:41:00+09:00,0.9,�쓌,1.3,��쓌,5.6,78.8,0,0,0,0
2021-04-12T01:42:00+09:00,0.9,�쓌,1.3,��쓌,5.6,78.8,0,0,0,0
2021-04-12T01:43:00+09:00,0.9,�쓌,1.3,��쓌,5.7,78.8,0,0,0,0
2021-04-12T01:44:00+09:00,0.9,�쓌,1.3,��쓌,5.6,78.7,0,0,0,0
2021-04-12T01:45:00+09:00,0.9,�쓌,1.3,��쓌,5.6,78.5,0,0,0,0
2021-04-12T01:46:00+09:00,0.9,�쓌,1.3,��쓌,5.6,78.4,0,0,0,0
2021-04-12T01:47:00+09:00,0.9,���쓌,1.2,�쓌,5.6,78.7,0,0,0,0
2021-04-12T01:48:00+09:00,0.9,���쓌,1.2,�쓌,5.6,78.8,0,0,0,0
2021-04-12T01:49:00+09:00,0.8,���쓌,1.2,�쓌,5.7,78.8,0,0,0,0
2021-04-12T01:50:00+09:00,0.8,���쓌,1.2,�쓌,5.5,78.2,0,0,0,0
2021-04-12T01:51:00+09:00,0.8,���쓌,1.5,��쓌,5.6,78.5,0,0,0,0
2021-04-12T01:52:00+09:00,0.8,���쓌,1.5,��쓌,5.6,78.3,0,0,0,0
2021-04-12T01:53:00+09:00,0.8,���쓌,1.5,��쓌,5.5,77.5,0,0,0,0
2021-04-12T01:54:00+09:00,0.8,���쓌,1.5,��쓌,5.6,78.4,0,0,0,0
2021-04-12T01:55:00+09:00,0.8,���쓌,1.5,��쓌,5.7,79,0,0,0,0
2021-04-12T01:56:00+09:00,0.8,���쓌,1.5,��쓌,5.6,78.2,0,0,0,0
2021-04-12T01:57:00+09:00,0.8,���쓌,1.5,��쓌,5.6,78,0,0,0,0
2021-04-12T01:58:00+09:00,0.8,���쓌,1.5,��쓌,5.6,77.9,0,0,0,0
2021-04-12T01:59:00+09:00,0.9,���쓌,1.5,��쓌,5.4,78.2,0,0,0,0
2021-04-12T02:00:00+09:00,0.9,���쓌,1.5,��쓌,5.5,78.1,0,0,0,0
2021-04-12T02:01:00+09:00,0.8,���쓌,1.4,���쓌,5.6,78.7,0,0,0,0
2021-04-12T02:02:00+09:00,0.7,���쓌,1.4,���쓌,5.6,78.7,0,0,0,0
2021-04-12T02:03:00+09:00,0.7,���쓌,1.4,���쓌,5.6,78.2,0,0,0,0
2021-04-12T02:04:00+09:00,0.7,���쓌,1.4,���쓌,5.6,78.3,0,0,0,0
2021-04-12T02:05:00+09:00,0.6,���쓌,1.2,���쓌,5.5,78.5,0,0,0,0
2021-04-12T02:06:00+09:00,0.5,���쓌,1.2,���쓌,5.4,78.5,0,0,0,0
2021-04-12T02:07:00+09:00,0.4,���쓌,1.2,���쓌,5.2,77.5,0,0,0,0
2021-04-12T02:08:00+09:00,0.3,��,1,�쓌,5.1,77.5,0,0,0,0
2021-04-12T02:09:00+09:00,0.3,��,0.9,�쓌,5.1,77.8,0,0,0,0
2021-04-12T02:10:00+09:00,0.3,��,0.6,�쓌,5,77.8,0,0,0,0
2021-04-12T02:11:00+09:00,0.2,�É�,0.6,�쓌,5.3,78.6,0,0,0,0
2021-04-12T02:12:00+09:00,0.3,��,0.9,���쓌,5.3,78.6,0,0,0,0
2021-04-12T02:13:00+09:00,0.3,��,1,���쓌,5.2,78,0,0,0,0
2021-04-12T02:14:00+09:00,0.3,��,1,���쓌,5.2,78.4,0,0,0,0
2021-04-12T02:15:00+09:00,0.4,��,1,���쓌,5.1,78.2,0,0,0,0
2021-04-12T02:16:00+09:00,0.5,���쓌,1.3,���쓌,5.1,78.2,0,0,0,0
2021-04-12T02:17:00+09:00,0.6,���쓌,1.5,�쓌,5.1,78.6,0,0,0,0
2021-04-12T02:18:00+09:00,0.7,���쓌,1.5,�쓌,5.2,78.7,0,0,0,0
2021-04-12T02:19:00+09:00,0.7,���쓌,1.5,�쓌,5.1,78.7,0,0,0,0
2021-04-12T02:20:00+09:00,0.8,���쓌,1.5,�쓌,5.2,79.2,0,0,0,0
2021-04-12T02:21:00+09:00,0.9,���쓌,1.5,�쓌,5.2,79.2,0,0,0,0
2021-04-12T02:22:00+09:00,1,���쓌,1.6,���쓌,5.2,79,0,0,0,0
2021-04-12T02:23:00+09:00,1,���쓌,2.1,���쓌,5.2,79,0,0,0,0
2021-04-12T02:24:00+09:00,1.1,���쓌,2.1,���쓌,5.2,78.8,0,0,0,0
2021-04-12T02:25:00+09:00,1.1,���쓌,2.1,���쓌,5.1,79.1,0,0,0,0
2021-04-12T02:26:00+09:00,1.1,���쓌,2.1,���쓌,5.2,79,0,0,0,0
2021-04-12T02:27:00+09:00,1.1,���쓌,2.1,���쓌,5.2,79.4,0,0,0,0
2021-04-12T02:28:00+09:00,1.2,���쓌,2.1,���쓌,5.1,78.7,0,0,0,0
2021-04-12T02:29:00+09:00,1.2,��,2.1,���쓌,4.9,78.3,0,0,0,0
2021-04-12T02:30:00+09:00,1.2,��,2.1,���쓌,4.8,77.6,0,0,0,0
2021-04-12T02:31:00+09:00,1.2,��,2.1,���쓌,4.8,78,0,0,0,0
2021-04-12T02:32:00+09:00,1.2,��,2.1,���쓌,4.9,78.6,0,0,0,0
2021-04-12T02:33:00+09:00,1.2,��,1.9,���k��,5,78.9,0,0,0,0
2021-04-12T02:34:00+09:00,1.2,��,1.9,���k��,5.1,79.4,0,0,0,0
2021-04-12T02:35:00+09:00,1.1,��,1.9,���k��,5.1,79.6,0,0,0,0
2021-04-12T02:36:00+09:00,1.1,��,1.9,���k��,5.1,79.5,0,0,0,0
2021-04-12T02:37:00+09:00,1,��,1.9,���k��,5.2,80.1,0,0,0,0
2021-04-12T02:38:00+09:00,0.9,��,1.9,���k��,5.2,80.6,0,0,0,0
2021-04-12T02:39:00+09:00,0.8,��,1.7,��,5.3,80.2,0,0,0,0
2021-04-12T02:40:00+09:00,0.8,��,1.7,��,5.2,79.9,0,0,0,0
2021-04-12T02:41:00+09:00,0.7,��,1.7,��,5.2,79.7,0,0,0,0
2021-04-12T02:42:00+09:00,0.6,��,1.6,��,5.2,80.1,0,0,0,0
2021-04-12T02:43:00+09:00,0.5,��,1.3,���쓌,5.3,80.8,0,0,0,0
2021-04-12T02:44:00+09:00,0.5,��,1,���k��,5.3,80.5,0,0,0,0
2021-04-12T02:45:00+09:00,0.5,��,1,���k��,5.3,80.5,0,0,0,0
2021-04-12T02:46:00+09:00,0.5,��,1,���k��,5.3,80.7,0,0,0,0
2021-04-12T02:47:00+09:00,0.6,��,1,���k��,5.3,80.7,0,0,0,0
2021-04-12T02:48:00+09:00,0.6,��,1,���k��,5.3,80.5,0,0,0,0
2021-04-12T02:49:00+09:00,0.6,��,1,���k��,5.3,80.3,0,0,0,0
2021-04-12T02:50:00+09:00,0.6,���쓌,1,�쓌,5.3,80.6,0,0,0,0
2021-04-12T02:51:00+09:00,0.6,���쓌,1,�쓌,5.3,80.6,0,0,0,0
2021-04-12T02:52:00+09:00,0.7,���쓌,1,�쓌,5.2,80.2,0,0,0,0
2021-04-12T02:53:00+09:00,0.7,���쓌,1,�쓌,5.2,79.6,0,0,0,0
2021-04-12T02:54:00+09:00,0.7,���쓌,1,�쓌,5.2,80.2,0,0,0,0
2021-04-12T02:55:00+09:00,0.7,���쓌,1,�쓌,5.2,80.5,0,0,0,0
2021-04-12T02:56:00+09:00,0.7,���쓌,1,�쓌,5.3,81,0,0,0,0
2021-04-12T02:57:00+09:00,0.6,���쓌,1,�쓌,5.3,81.4,0,0,0,0
2021-04-12T02:58:00+09:00,0.6,���쓌,1,�쓌,5.3,80.9,0,0,0,0
2021-04-12T02:59:00+09:00,0.6,���쓌,1,�쓌,5.2,80.5,0,0,0,0
2021-04-12T03:00:00+09:00,0.6,���쓌,1,�쓌,5.1,80.3,0,0,0,0
2021-04-12T03:01:00+09:00,0.6,���쓌,1,�쓌,5.1,80.6,0,0,0,0
2021-04-12T03:02:00+09:00,0.6,��,1,�쓌,5.1,81.4,0,0,0,0
2021-04-12T03:03:00+09:00,0.6,��,1.4,��,5,81,0,0,0,0
2021-04-12T03:04:00+09:00,0.6,��,1.4,��,4.8,80.2,0,0,0,0
2021-04-12T03:05:00+09:00,0.7,��,1.4,��,4.8,80.1,0,0,0,0
2021-04-12T03:06:00+09:00,0.7,��,1.4,��,4.7,80.1,0,0,0,0
2021-04-12T03:07:00+09:00,0.7,���k��,1.4,��,4.7,80.1,0,0,0,0
2021-04-12T03:08:00+09:00,0.7,���k��,1.4,��,4.6,80.3,0,0,0,0
2021-04-12T03:09:00+09:00,0.7,���k��,1.4,��,4.5,80.1,0,0,0,0
2021-04-12T03:10:00+09:00,0.7,���k��,1.4,��,4.4,80.1,0,0,0,0
2021-04-12T03:11:00+09:00,0.7,��,1.4,��,4.5,80.7,0,0,0,0
2021-04-12T03:12:00+09:00,0.7,��,1.4,��,4.7,81.9,0,0,0,0
2021-04-12T03:13:00+09:00,0.6,��,1.3,�k��,4.7,81.9,0,0,0,0
2021-04-12T03:14:00+09:00,0.6,���k��,1.3,�k��,4.7,81.2,0,0,0,0
2021-04-12T03:15:00+09:00,0.6,��,1.2,�k��,4.9,83.2,0,0,0,0
2021-04-12T03:16:00+09:00,0.6,��,1.1,���쓌,4.9,83.4,0,0,0,0
2021-04-12T03:17:00+09:00,0.7,��,1.3,���쓌,4.7,81.9,0,0,0,0
2021-04-12T03:18:00+09:00,0.8,��,1.4,���쓌,4.6,81.1,0,0,0,0
2021-04-12T03:19:00+09:00,0.8,��,1.4,���쓌,4.6,81.4,0,0,0,0
2021-04-12T03:20:00+09:00,0.9,��,1.4,���쓌,4.7,81.8,0,0,0,0
2021-04-12T03:21:00+09:00,0.9,���쓌,1.4,���쓌,5,82.7,0,0,0,0
2021-04-12T03:22:00+09:00,1,���쓌,1.4,���쓌,5,82.6,0,0,0,0
2021-04-12T03:23:00+09:00,1,���쓌,1.4,���쓌,4.9,81.7,0,0,0,0
2021-04-12T03:24:00+09:00,1,���쓌,1.4,���쓌,4.8,81.7,0,0,0,0
2021-04-12T03:25:00+09:00,1,�쓌,1.4,���쓌,4.7,81.6,0,0,0,0
2021-04-12T03:26:00+09:00,1,���쓌,1.4,���쓌,4.8,82.5,0,0,0,0
2021-04-12T03:27:00+09:00,1,���쓌,1.4,���쓌,4.8,82.9,0,0,0,0
2021-04-12T03:28:00+09:00,0.9,���쓌,1.4,�쓌,4.8,82.8,0,0,0,0
2021-04-12T03:29:00+09:00,0.9,���쓌,1.3,���쓌,4.8,82.7,0,0,0,0
2021-04-12T03:30:00+09:00,0.8,���쓌,1.3,���쓌,4.9,82.7,0,0,0,0
2021-04-12T03:31:00+09:00,0.8,���쓌,1.3,���쓌,4.9,83,0,0,0,0
2021-04-12T03:32:00+09:00,0.8,���쓌,1.3,���쓌,4.7,81.1,0,0,0,0
2021-04-12T03:33:00+09:00,0.8,���쓌,1.3,���쓌,4.5,80.5,0,0,0,0
2021-04-12T03:34:00+09:00,0.8,���쓌,1.6,��,4.5,81,0,0,0,0
2021-04-12T03:35:00+09:00,0.9,���쓌,1.7,���쓌,4.7,81.8,0,0,0,0
2021-04-12T03:36:00+09:00,0.9,���쓌,1.8,��,4.7,82.1,0,0,0,0
2021-04-12T03:37:00+09:00,1,���쓌,1.8,��,4.7,81.8,0,0,0,0
2021-04-12T03:38:00+09:00,1,���쓌,1.8,��,4.6,81.5,0,0,0,0
2021-04-12T03:39:00+09:00,1.1,���쓌,1.8,��,4.6,81.4,0,0,0,0
2021-04-12T03:40:00+09:00,1.1,���쓌,1.8,��,4.7,81.7,0,0,0,0
2021-04-12T03:41:00+09:00,1.2,���쓌,1.8,��,4.8,81.9,0,0,0,0
2021-04-12T03:42:00+09:00,1.1,���쓌,1.8,��,4.8,81.7,0,0,0,0
2021-04-12T03:43:00+09:00,1.1,���쓌,1.8,��,4.8,82,0,0,0,0
2021-04-12T03:44:00+09:00,1.1,���쓌,1.8,��,4.8,81.9,0,0,0,0
2021-04-12T03:45:00+09:00,1.1,���쓌,1.8,��,4.7,81.4,0,0,0,0
2021-04-12T03:46:00+09:00,1,���쓌,1.4,���쓌,4.7,81.5,0,0,0,0
2021-04-12T03:47:00+09:00,1,���쓌,1.4,���쓌,4.7,82.2,0,0,0,0
2021-04-12T03:48:00+09:00,0.9,���쓌,1.4,���쓌,4.8,82.6,0,0,0,0
2021-04-12T03:49:00+09:00,0.9,���쓌,1.3,���쓌,4.8,82.8,0,0,0,0
2021-04-12T03:50:00+09:00,0.8,���쓌,1.3,���쓌,4.8,83.2,0,0,0,0
2021-04-12T03:51:00+09:00,0.8,���쓌,1.3,���쓌,4.8,83.3,0,0,0,0
2021-04-12T03:52:00+09:00,0.9,���쓌,1.3,���쓌,4.8,83.4,0,0,0,0
2021-04-12T03:53:00+09:00,0.9,���쓌,1.3,���쓌,4.7,83.5,0,0,0,0
2021-04-12T03:54:00+09:00,0.9,���쓌,1.2,���쓌,4.7,83.4,0,0,0,0
2021-04-12T03:55:00+09:00,0.8,���쓌,1.1,���쓌,4.7,83.9,0,0,0,0
2021-04-12T03:56:00+09:00,0.8,���쓌,1.1,���쓌,4.7,84.2,0,0,0,0
2021-04-12T03:57:00+09:00,0.8,���쓌,1.1,���쓌,4.8,84.4,0,0,0,0
2021-04-12T03:58:00+09:00,0.8,���쓌,1.1,���쓌,4.9,84.5,0,0,0,0
2021-04-12T03:59:00+09:00,0.7,���쓌,1.1,���쓌,4.9,84.2,0,0,0,0
2021-04-12T04:00:00+09:00,0.7,���쓌,1.1,���쓌,4.9,83.9,0,0,0,0
2021-04-12T04:01:00+09:00,0.7,���쓌,1.1,���쓌,4.8,83.9,0,0,0,0
2021-04-12T04:02:00+09:00,0.7,���쓌,1.1,���쓌,4.8,83.8,0,0,0,0
2021-04-12T04:03:00+09:00,0.7,���쓌,1.4,��쓌,4.8,84.1,0,0,0,0
2021-04-12T04:04:00+09:00,0.7,���쓌,1.4,��쓌,4.9,84.2,0,0,0,0
2021-04-12T04:05:00+09:00,0.7,�쓌,1.4,��쓌,4.8,83.9,0,0,0,0
2021-04-12T04:06:00+09:00,0.7,�쓌,1.4,��쓌,4.9,84.2,0,0,0,0
2021-04-12T04:07:00+09:00,0.6,�쓌,1.4,��쓌,4.9,84.6,0,0,0,0
2021-04-12T04:08:00+09:00,0.6,�쓌,1.4,��쓌,5,84.6,0,0,0,0
2021-04-12T04:09:00+09:00,0.6,��쓌,1.4,��쓌,5,84.2,0,0,0,0
2021-04-12T04:10:00+09:00,0.6,��쓌,1.4,��쓌,5.1,84.6,0,0,0,0
2021-04-12T04:11:00+09:00,0.5,��쓌,1.4,��쓌,5.1,84.5,0,0,0,0
2021-04-12T04:12:00+09:00,0.5,��쓌,1.4,��쓌,5.1,84.5,0,0,0,0
2021-04-12T04:13:00+09:00,0.4,��쓌,0.9,��,5.2,84.5,0,0,0,0
2021-04-12T04:14:00+09:00,0.4,��쓌,0.9,��,5.5,85,0,0,0,0
2021-04-12T04:15:00+09:00,0.3,��쓌,0.8,��쓌,5.4,85.1,0,0,0,0
2021-04-12T04:16:00+09:00,0.4,��쓌,0.9,��쓌,5.2,83.6,0,0,0,0
2021-04-12T04:17:00+09:00,0.4,�쓌,0.9,��쓌,5.3,83.3,0,0,0,0
2021-04-12T04:18:00+09:00,0.4,�쓌,0.9,��쓌,5.2,83.5,0,0,0,0
2021-04-12T04:19:00+09:00,0.4,�쓌,0.9,��쓌,5,83.1,0,0,0,0
2021-04-12T04:20:00+09:00,0.3,�쓌,0.9,��쓌,5,83,0,0,0,0
2021-04-12T04:21:00+09:00,0.3,���쓌,0.9,��쓌,4.9,82.8,0,0,0,0
2021-04-12T04:22:00+09:00,0.3,���쓌,0.9,��쓌,4.8,83,0,0,0,0
2021-04-12T04:23:00+09:00,0.3,���쓌,0.9,��쓌,4.8,83.3,0,0,0,0
2021-04-12T04:24:00+09:00,0.3,���쓌,0.9,��쓌,4.7,83.1,0,0,0,0
2021-04-12T04:25:00+09:00,0.2,�É�,0.9,��쓌,4.7,83.2,0,0,0,0
2021-04-12T04:26:00+09:00,0.2,�É�,0.7,���쓌,4.8,83.6,0,0,0,0
2021-04-12T04:27:00+09:00,0.2,�É�,0.7,���쓌,4.8,84.1,0,0,0,0
2021-04-12T04:28:00+09:00,0.3,��,1,���쓌,4.8,84.1,0,0,0,0
2021-04-12T04:29:00+09:00,0.3,��,1,���쓌,4.7,83.8,0,0,0,0
2021-04-12T04:30:00+09:00,0.3,��,1,���쓌,4.6,83.4,0,0,0,0
2021-04-12T04:31:00+09:00,0.4,��,1,���쓌,4.7,84.4,0,0,0,0
2021-04-12T04:32:00+09:00,0.4,��,1,���쓌,4.7,85.1,0,0,0,0
2021-04-12T04:33:00+09:00,0.4,��,1,���쓌,4.8,85.6,0,0,0,0
2021-04-12T04:34:00+09:00,0.5,��,1.2,���쓌,4.9,85.9,0,0,0,0
2021-04-12T04:35:00+09:00,0.5,��,1.2,���쓌,4.9,85.8,0,0,0,0
2021-04-12T04:36:00+09:00,0.5,��,1.2,���쓌,4.9,86.1,0,0,0,0
2021-04-12T04:37:00+09:00,0.6,��,1.2,���쓌,4.8,85.6,0,0,0,0
2021-04-12T04:38:00+09:00,0.7,��,1.2,���쓌,4.7,85,0,0,0,0
2021-04-12T04:39:00+09:00,0.7,���쓌,1.2,���쓌,4.7,85.1,0,0,0,0
2021-04-12T04:40:00+09:00,0.8,���쓌,1.2,���쓌,4.7,85.5,0,0,0,0
2021-04-12T04:41:00+09:00,0.8,���쓌,1.2,���쓌,4.7,85.8,0,0,0,0
2021-04-12T04:42:00+09:00,0.8,���쓌,1.2,���쓌,4.8,85.7,0,0,0,0
2021-04-12T04:43:00+09:00,0.8,���쓌,1.2,���쓌,4.8,86,0,0,0,0
2021-04-12T04:44:00+09:00,0.7,���쓌,1.2,���쓌,4.8,85.8,0,0,0,0
2021-04-12T04:45:00+09:00,0.7,�쓌,1.2,���쓌,4.9,85.7,0,0,0,0
2021-04-12T04:46:00+09:00,0.6,�쓌,1.2,���쓌,4.8,85.5,0,0,0,0
2021-04-12T04:47:00+09:00,0.5,�쓌,1.1,���쓌,4.6,84.7,0,0,0,0
2021-04-12T04:48:00+09:00,0.5,�쓌,1,���쓌,4.4,84,0,0,0,0
2021-04-12T04:49:00+09:00,0.5,�쓌,0.9,���쓌,4.3,84,0,0,0,0
2021-04-12T04:50:00+09:00,0.4,���쓌,0.9,���쓌,4.3,84.3,0,0,0,0
2021-04-12T04:51:00+09:00,0.4,���쓌,0.9,���k��,4.3,84.9,0,0,0,0
2021-04-12T04:52:00+09:00,0.4,��,0.9,���k��,4.3,85.4,0,0,0,0
2021-04-12T04:53:00+09:00,0.4,��,0.9,���k��,4.3,85.6,0,0,0,0
2021-04-12T04:54:00+09:00,0.4,���k��,0.9,���k��,4.4,86.1,0,0,0,0
2021-04-12T04:55:00+09:00,0.4,���k��,0.9,���k��,4.4,85.9,0,0,0,0
2021-04-12T04:56:00+09:00,0.5,���k��,0.9,���k��,4.5,86.3,0,0,0,0
2021-04-12T04:57:00+09:00,0.5,���k��,0.9,���k��,4.5,86,0,0,0,0
2021-04-12T04:58:00+09:00,0.5,��,0.9,���k��,4.6,86.1,0,0,0,0
2021-04-12T04:59:00+09:00,0.5,��,0.9,���k��,4.6,86.4,0,0,0,0
2021-04-12T05:00:00+09:00,0.4,��,0.9,���k��,4.5,86,0,0,0,0
2021-04-12T05:01:00+09:00,0.4,��,0.9,���k��,4.5,85.5,0,0,0,0
2021-04-12T05:02:00+09:00,0.4,��,0.8,���k��,4.5,85.5,0,0,0,0
2021-04-12T05:03:00+09:00,0.4,��,1,���k��,4.4,85.1,0,0,0,0
2021-04-12T05:04:00+09:00,0.4,��,1,���k��,4.4,85.1,0,0,0,0
2021-04-12T05:05:00+09:00,0.5,��,1,���k��,4.4,85.3,0,0,0,0
2021-04-12T05:06:00+09:00,0.5,���k��,1,���k��,4.4,85.3,0,0,0,0
2021-04-12T05:07:00+09:00,0.5,���k��,1,���k��,4.5,85.8,0,0,0,0
2021-04-12T05:08:00+09:00,0.6,���k��,1.2,���k��,4.4,85.6,0,0,0,0
2021-04-12T05:09:00+09:00,0.6,���k��,1.2,���k��,4.4,85.5,0,0,0,0
2021-04-12T05:10:00+09:00,0.6,���k��,1.2,���k��,4.4,85.5,0,0,0,0
2021-04-12T05:11:00+09:00,0.6,���k��,1.2,���k��,4.4,85.4,0,0,0,0
2021-04-12T05:12:00+09:00,0.6,���k��,1.2,���k��,4.4,85.4,0,0,0,0
2021-04-12T05:13:00+09:00,0.6,���k��,1.2,���k��,4.4,85.5,0,0,0,0
2021-04-12T05:14:00+09:00,0.5,���k��,1.2,���k��,4.3,85.3,0,0,0,0
2021-04-12T05:15:00+09:00,0.5,���k��,1.2,���k��,4.3,85.4,0,0,0,0
2021-04-12T05:16:00+09:00,0.5,���k��,1.2,���k��,4.3,85.3,0,0,0,0
2021-04-12T05:17:00+09:00,0.4,���k��,1.2,���k��,4.3,85.5,0,0,0,0
2021-04-12T05:18:00+09:00,0.4,���k��,0.8,���쓌,4.2,85.2,0,0,0,0
2021-04-12T05:19:00+09:00,0.4,���k��,0.9,���쓌,4.2,85.2,0,0,0,0
2021-04-12T05:20:00+09:00,0.4,���k��,1.2,��,4.3,85.6,0,0,0,0
2021-04-12T05:21:00+09:00,0.4,���k��,1.2,��,4.4,85.7,0,0,0,0
2021-04-12T05:22:00+09:00,0.4,���k��,1.2,��,4.4,85.9,0,0,0,0
2021-04-12T05:23:00+09:00,0.5,��,1.2,��,4.4,85.7,0,0,0,0
2021-04-12T05:24:00+09:00,0.6,��,1.2,��,4.4,85.7,0,0,0,0
2021-04-12T05:25:00+09:00,0.6,��,1.2,��,4.4,85.8,0,0,0,0
2021-04-12T05:26:00+09:00,0.6,��,1.2,��,4.4,85.5,0,0,0,0
2021-04-12T05:27:00+09:00,0.7,��,1.2,��,4.3,85.1,0,0,0,0
2021-04-12T05:28:00+09:00,0.8,��,1.5,��,4.2,85.2,0,0,0,0
2021-04-12T05:29:00+09:00,0.8,��,1.5,��,4.3,85.6,0,0,0,0
2021-04-12T05:30:00+09:00,0.9,��,1.7,��,4.4,86,0,0,0,0
2021-04-12T05:31:00+09:00,0.9,��,1.7,��,4.4,86.1,0,0,0,0
2021-04-12T05:32:00+09:00,0.9,��,1.7,��,4.5,86,0,0,0,0
2021-04-12T05:33:00+09:00,0.8,��,1.7,��,4.5,86,0,0,0,0
2021-04-12T05:34:00+09:00,0.8,��,1.7,��,4.5,86.3,0,0,0,0
2021-04-12T05:35:00+09:00,0.8,��,1.7,��,4.6,86.2,0,0,0,0
2021-04-12T05:36:00+09:00,0.8,���쓌,1.7,��,4.4,85.6,0,0,0,0
2021-04-12T05:37:00+09:00,0.8,���쓌,1.7,��,4.5,85.4,0,0,0,0
2021-04-12T05:38:00+09:00,0.8,���쓌,1.7,��,4.5,86.1,0,0,0,0
2021-04-12T05:39:00+09:00,0.7,���쓌,1.7,��,4.5,85.8,0,0,0,0
2021-04-12T05:40:00+09:00,0.7,���쓌,1.2,��쓌,4.5,85.9,0,0,0,0
2021-04-12T05:41:00+09:00,0.7,���쓌,1.2,��쓌,4.5,85.7,0,0,0,0
2021-04-12T05:42:00+09:00,0.7,�쓌,1.2,��쓌,4.6,86.1,0,0,0,0
2021-04-12T05:43:00+09:00,0.7,�쓌,1.2,��쓌,4.6,86.3,0,0,0,0
2021-04-12T05:44:00+09:00,0.7,�쓌,1.2,��쓌,4.6,86.1,0,0,0,0
2021-04-12T05:45:00+09:00,0.8,�쓌,1.2,��쓌,4.6,86.2,0,0,0,0
2021-04-12T05:46:00+09:00,0.8,�쓌,1.2,��쓌,4.6,86.4,0,0,0,0
2021-04-12T05:47:00+09:00,0.8,���쓌,1.2,��,4.5,86.4,0,0,0,0
2021-04-12T05:48:00+09:00,0.9,���쓌,1.3,��,4.4,85.7,0,0,0,0
2021-04-12T05:49:00+09:00,0.9,���쓌,1.4,���쓌,4.3,85.5,0,0,0,0
2021-04-12T05:50:00+09:00,1,���쓌,1.6,���쓌,4.3,85.8,0,0,0,0
2021-04-12T05:51:00+09:00,1,���쓌,1.6,���쓌,4.4,86.3,0,0,0,0
2021-04-12T05:52:00+09:00,1.1,���쓌,1.8,���쓌,4.4,86.7,0,0,0,0
2021-04-12T05:53:00+09:00,1.2,���쓌,1.9,���쓌,4.4,86.6,0,0,0,0
2021-04-12T05:54:00+09:00,1.3,���쓌,2.1,��,4.4,86.5,0,0,0,0
2021-04-12T05:55:00+09:00,1.4,���쓌,2.1,��,4.4,86.5,0,0,0,0
2021-04-12T05:56:00+09:00,1.5,���쓌,2.1,��,4.4,86.7,0,0,0,0
2021-04-12T05:57:00+09:00,1.5,���쓌,2.1,��,4.4,86.7,0,0,0,0
2021-04-12T05:58:00+09:00,1.6,���쓌,2.1,��,4.4,86.6,0,0,0,0
2021-04-12T05:59:00+09:00,1.5,���쓌,2.1,��,4.5,87,0,0,0,0
2021-04-12T06:00:00+09:00,1.5,���쓌,2.1,��,4.5,87.1,0,0,0,0
2021-04-12T06:01:00+09:00,1.5,���쓌,2.1,��,4.5,86.8,0,0,0,0
2021-04-12T06:02:00+09:00,1.4,���쓌,2.1,��,4.6,87,0,0,0,0
2021-04-12T06:03:00+09:00,1.3,���쓌,2.1,��,4.6,86.9,0,0,0,0
2021-04-12T06:04:00+09:00,1.1,���쓌,2,���쓌,4.7,86.9,0,0,0,0
2021-04-12T06:05:00+09:00,1,���쓌,1.8,���쓌,4.7,86.8,0,0,0,0
2021-04-12T06:06:00+09:00,0.8,���쓌,1.8,���쓌,4.6,86.2,0,0,0,0
2021-04-12T06:07:00+09:00,0.7,���쓌,1.5,���쓌,4.4,85.5,0,0,0,0
2021-04-12T06:08:00+09:00,0.6,���쓌,1.3,���쓌,4.3,85.2,0,0,0,0
2021-04-12T06:09:00+09:00,0.6,��,1.3,���쓌,4.3,85.5,0,0,0,0
2021-04-12T06:10:00+09:00,0.5,��,1.1,��,4.3,85.8,0,0,0,0
2021-04-12T06:11:00+09:00,0.5,��,1,���쓌,4.3,86.2,0,0,0,0
2021-04-12T06:12:00+09:00,0.4,��,0.9,���쓌,4.3,86.4,0,0,0,0
2021-04-12T06:13:00+09:00,0.4,��,0.8,���k��,4.4,86.6,0,0,0,0
2021-04-12T06:14:00+09:00,0.4,��,0.8,���k��,4.4,86.7,0,0,0,0
2021-04-12T06:15:00+09:00,0.4,��,0.8,���k��,4.5,86.9,0,0,0,0
2021-04-12T06:16:00+09:00,0.4,��,0.8,���k��,4.4,86.6,0,0,0,0
2021-04-12T06:17:00+09:00,0.4,��,0.8,���k��,4.4,86.3,0,0,0,0
2021-04-12T06:18:00+09:00,0.4,��,0.8,���k��,4.4,86.3,0,0,0,0
2021-04-12T06:19:00+09:00,0.3,��,0.8,���k��,4.5,86.8,0,0,0,0
2021-04-12T06:20:00+09:00,0.3,���쓌,0.8,���k��,4.8,87.4,0,0,0,0
2021-04-12T06:21:00+09:00,0.3,�쓌,0.8,��쐼,4.8,87.5,0,0,0,0
2021-04-12T06:22:00+09:00,0.3,�쓌,0.8,��쐼,4.9,87,0,0,0,0
2021-04-12T06:23:00+09:00,0.3,��쓌,0.8,��쐼,5,87,0,0,0,0
2021-04-12T06:24:00+09:00,0.3,��쓌,0.9,��쓌,5,86.9,0,0,0,0
2021-04-12T06:25:00+09:00,0.4,��쓌,0.9,��쓌,5.1,87,0,0,0,0
2021-04-12T06:26:00+09:00,0.4,��,0.9,��쓌,5.2,87,0,0,0,0
2021-04-12T06:27:00+09:00,0.4,��,0.9,��쓌,5.3,87.1,0,0,0,0
2021-04-12T06:28:00+09:00,0.5,��,0.9,��쓌,5.3,86.7,0,0,0,0
2021-04-12T06:29:00+09:00,0.5,��,0.9,��쓌,5,85.6,0,0,0,0
2021-04-12T06:30:00+09:00,0.4,��,0.9,��쓌,4.9,84.8,0,0,0,0
2021-04-12T06:31:00+09:00,0.4,��,0.9,��쓌,4.9,85.4,0,0,0,0
2021-04-12T06:32:00+09:00,0.3,��,0.9,��쓌,4.9,85.9,0,0,0,0
2021-04-12T06:33:00+09:00,0.3,��쓌,0.9,��쓌,4.9,85.9,0,0,0,0
2021-04-12T06:34:00+09:00,0.3,��쓌,0.9,��쓌,4.8,85.8,0,0,0,0
2021-04-12T06:35:00+09:00,0.2,�É�,0.9,���k��,4.8,86.1,0,0,0,0
2021-04-12T06:36:00+09:00,0.3,�k�k��,1.1,���k��,5,86.6,0,0,0,0
2021-04-12T06:37:00+09:00,0.3,�k�k��,1.1,���k��,5,86.6,0,0,0,0
2021-04-12T06:38:00+09:00,0.4,�k�k��,1.1,���k��,5.1,86.4,0,0,0,0
2021-04-12T06:39:00+09:00,0.4,�k�k��,1.1,���k��,5.2,86.5,0,0,0,0
2021-04-12T06:40:00+09:00,0.5,�k�k��,1.1,���k��,5.2,86.5,0,0,0,0
2021-04-12T06:41:00+09:00,0.5,�k�k��,1.1,���k��,5.2,86.1,0,0,0,0
2021-04-12T06:42:00+09:00,0.5,�k�k��,1.1,���k��,5.1,85.7,0,0,0,0
2021-04-12T06:43:00+09:00,0.5,�k�k��,1.1,���k��,5.3,86.3,0,0,0,0
2021-04-12T06:44:00+09:00,0.5,�k��,1.1,���k��,5.3,86.5,0,0,0,0